Theta_e
319 312 309 307 299 292 288 290 294 296 296 299 301 301 300 303 299 294 322 332 335 338 343 345 349 350 347 344 343 342 342 341 342 343 343 343 344 344 340 339 340 336 337 339 338 338 339 338 336
315 313 308 300 293 288 288 290 295 296 299 301 302 301 303 304 313 321 325 334 336 339 342 344 346 349 347 345 343 342 341 341 341 341 342 342 342 344 342 339 338 336 336 337 337 337 339 337 336
313 308 303 295 288 287 287 290 294 296 297 296 298 303 304 307 314 324 328 335 336 339 343 344 346 349 348 346 344 343 341 340 340 340 341 341 341 344 342 339 337 336 335 337 337 337 338 336 335
307 303 298 291 288 289 290 294 297 296 296 297 298 301 307 314 322 327 334 335 334 340 344 342 347 349 348 346 344 342 341 340 340 339 340 340 343 343 342 339 337 335 334 336 335 337 336 336 335
302 298 292 289 289 291 292 296 296 295 295 295 301 298 305 319 325 331 333 335 334 339 342 342 345 347 347 346 344 342 341 340 339 339 340 341 343 343 341 338 335 334 333 335 334 335 337 336 335
298 296 290 287 288 291 294 296 296 294 294 296 300 302 307 316 327 329 334 333 337 338 341 342 339 342 344 345 344 343 342 341 339 339 339 341 343 342 340 338 335 334 331 333 333 334 335 333 332
295 292 289 289 289 290 294 297 294 295 295 296 302 300 305 314 325 331 332 332 336 339 341 342 342 339 337 339 340 340 340 339 339 339 339 341 341 341 339 337 334 332 330 332 332 333 332 331 330
298 294 288 289 289 290 295 295 295 296 296 297 303 299 302 316 326 329 331 332 334 336 339 340 342 339 339 338 334 335 336 336 336 336 334 333 333 333 333 331 333 331 329 330 331 331 331 330 329
296 291 288 290 290 292 295 294 295 296 297 300 299 302 305 319 325 326 327 329 333 335 338 339 338 340 337 337 332 331 331 332 331 330 328 326 326 326 325 327 331 331 329 329 331 330 329 327 325
293 289 290 291 290 292 295 294 295 297 296 297 300 307 310 317 323 325 327 328 330 332 334 337 337 338 338 339 333 331 331 328 326 325 324 323 322 322 324 323 327 328 328 329 328 327 322 316 313
293 291 292 292 293 295 295 293 294 294 293 296 298 303 311 314 319 323 325 328 330 332 334 336 336 337 337 337 335 332 329 326 322 321 321 321 321 319 319 319 319 318 318 316 314 312 311 311 311
290 293 293 295 295 294 293 294 292 294 295 297 298 304 311 314 319 322 322 322 326 329 333 335 336 336 336 336 335 334 332 327 320 319 320 319 318 316 315 315 314 314 312 310 308 308 308 309 309
290 291 292 295 294 292 294 291 292 293 297 296 297 307 310 315 318 321 324 322 321 327 331 333 335 335 336 335 335 334 333 331 323 318 318 318 317 315 313 312 312 311 310 309 306 306 306 307 307
293 294 293 294 294 293 292 290 291 293 292 293 295 300 307 310 314 313 313 318 317 326 329 332 334 335 335 334 333 333 333 332 327 319 319 317 316 314 312 310 311 309 309 307 306 304 305 304 305
294 290 290 292 293 292 294 289 292 293 294 292 292 293 298 305 309 312 315 317 320 321 328 330 332 334 333 333 333 333 333 333 329 322 318 317 316 315 312 312 311 312 310 306 304 302 302 302 301
289 288 283 288 292 292 291 285 291 292 292 293 294 292 293 296 301 309 312 313 315 319 322 328 332 332 331 333 333 333 333 333 332 328 319 319 317 315 314 314 313 312 311 307 304 303 302 301 301
286 281 283 287 293 292 289 287 290 293 292 293 293 294 294 294 296 297 303 310 313 317 320 324 329 329 330 332 332 332 333 332 332 330 323 321 318 316 314 314 313 312 310 306 305 299 301 299 296
282 283 284 283 290 289 288 289 292 293 292 292 292 292 292 293 296 298 297 301 309 312 317 321 326 329 329 331 331 332 333 332 332 331 327 323 321 317 315 313 313 312 309 305 303 301 298 297 295
285 284 284 285 290 289 288 288 291 293 291 291 291 291 292 292 297 296 297 297 297 304 309 315 321 327 328 329 329 330 329 330 331 331 329 326 323 319 316 315 314 312 308 306 303 298 295 291 292
285 283 283 286 289 288 287 288 290 291 292 292 292 292 291 291 293 294 295 294 295 298 304 311 318 324 327 329 330 331 332 332 331 331 329 328 325 322 318 317 314 312 310 306 300 297 294 291 292
284 283 283 285 286 285 284 284 285 288 289 292 292 293 292 293 294 294 294 294 293 294 296 305 315 320 326 328 325 316 320 319 323 328 328 327 326 323 321 319 316 313 311 306 301 298 297 291 292
283 289 287 286 283 280 283 277 282 286 288 289 292 289 289 291 291 293 293 293 294 295 295 301 309 317 323 325 324 324 325 324 325 328 329 327 326 324 322 321 318 315 312 308 303 300 299 297 291
287 288 286 285 281 280 280 279 282 283 285 289 289 291 291 291 291 295 295 297 297 297 296 299 309 314 318 322 324 323 322 319 313 313 321 318 319 324 322 321 319 316 313 312 307 302 299 298 297
290 287 285 283 281 276 280 280 279 282 285 285 289 291 292 294 295 294 295 295 296 297 297 301 306 309 312 315 316 318 318 311 309 308 314 316 317 314 316 319 319 317 314 312 308 305 301 301 301
285 283 277 275 274 276 278 278 281 286 286 286 290 292 293 293 294 294 295 294 294 296 297 298 303 305 310 312 313 313 314 310 310 308 308 307 310 308 312 311 312 315 315 313 309 305 302 301 299
283 283 278 271 273 275 281 278 284 287 290 291 293 292 293 293 294 294 295 295 295 295 296 297 298 299 302 306 308 308 309 308 308 307 305 305 308 313 312 311 312 313 313 312 309 306 303 301 300
285 281 284 279 268 273 278 281 287 289 291 290 292 292 293 293 294 295 295 295 295 296 296 297 298 299 299 300 302 304 304 304 305 304 303 302 302 301 301 301 306 308 310 309 309 307 304 302 300
287 288 281 279 270 269 276 277 281 286 288 289 291 291 293 293 294 294 294 294 295 294 296 297 298 298 299 299 299 300 301 301 302 301 301 299 299 299 298 297 300 302 305 305 306 306 304 302 301
285 283 283 283 279 273 271 277 284 288 290 290 291 292 293 293 293 293 293 293 294 295 296 296 297 297 297 298 298 298 298 299 299 299 299 298 297 297 296 296 299 301 301 303 303 303 303 300 300
286 285 285 280 277 279 279 281 289 290 291 292 291 293 293 292 292 292 292 292 293 293 294 295 295 296 297 297 297 297 297 297 297 297 297 296 296 295 295 294 294 298 299 300 300 300 301 298 297
Wind_Speed
5 6 1 5 5 6 1 4 2 2 2 1 2 5 7 4 3 4 1 7 12 13 9 10 13 14 13 13 13 12 12 12 12 13 13 14 14 16 18 18 16 16 15 17 16 16 18 17 17
3 1 5 3 6 4 4 4 5 3 4 6 5 3 4 2 1 3 6 6 13 12 9 9 11 15 14 14 13 12 12 12 12 12 12 12 13 16 17 17 16 16 15 15 16 16 18 17 16
1 3 4 5 4 5 5 4 6 2 3 2 4 5 4 4 0 8 2 12 13 11 9 9 12 14 14 14 14 13 13 12 12 12 12 12 12 15 16 16 16 16 14 15 15 14 17 16 16
2 5 5 5 3 4 4 6 6 5 1 2 3 4 2 1 6 7 11 13 12 10 9 10 13 14 14 14 14 13 13 12 12 12 12 12 11 14 16 16 16 15 13 14 15 15 16 15 14
5 3 4 4 2 2 1 4 7 4 3 2 2 3 1 3 3 9 11 11 12 9 7 10 12 14 14 14 14 13 13 12 12 11 12 11 11 16 16 16 15 15 13 14 14 13 15 16 15
4 3 5 3 2 2 0 4 5 4 3 2 5 6 4 4 7 7 10 10 10 11 8 8 10 11 12 14 14 13 12 12 12 11 11 11 15 15 15 14 14 13 13 13 14 14 16 15 15
6 5 5 4 5 3 6 7 4 6 5 4 8 5 3 2 5 7 7 7 7 8 10 8 7 8 10 11 11 11 12 11 11 10 10 9 11 13 13 13 12 12 12 13 13 14 15 15 15
5 5 4 1 4 4 4 4 4 6 6 2 6 4 4 5 9 7 6 6 7 7 9 12 10 6 6 6 10 10 10 10 10 10 9 9 10 11 11 10 12 13 12 13 13 14 14 15 14
3 6 2 5 5 3 4 3 2 0 6 1 4 6 3 8 9 7 5 3 6 6 10 12 12 10 6 6 6 8 10 10 10 9 10 8 5 6 8 8 11 12 12 12 13 14 14 13 13
5 5 8 3 3 3 4 2 6 3 3 2 2 0 3 9 10 13 13 12 13 14 14 13 13 12 9 6 6 5 5 4 4 5 5 4 5 5 6 7 11 10 10 11 12 13 11 8 4
3 5 5 2 2 2 4 1 1 6 4 7 9 5 6 6 8 12 12 13 16 14 12 13 14 14 13 8 6 3 2 3 3 5 5 5 4 3 3 3 3 4 6 4 5 5 4 5 4
4 2 5 5 1 3 4 0 1 6 7 4 6 6 8 9 12 14 13 11 10 12 16 16 15 14 14 10 8 7 5 4 3 4 6 4 3 3 4 4 4 4 3 5 4 3 4 5 5
3 3 2 3 3 0 2 2 4 7 10 4 3 8 11 11 13 10 10 7 6 10 12 13 14 13 13 13 9 8 7 6 5 5 5 5 4 4 3 3 4 4 4 4 4 4 4 5 5
4 3 3 2 1 2 2 1 2 3 1 4 5 8 9 11 15 7 6 9 9 11 13 12 13 12 12 13 14 10 8 8 7 6 6 6 5 5 4 3 4 4 4 4 4 4 4 4 4
3 3 2 3 2 1 3 4 9 5 4 1 3 8 8 12 7 13 14 14 13 12 10 13 14 12 13 13 13 10 11 9 7 7 7 8 7 7 6 5 3 5 4 5 4 4 4 4 3
4 6 1 2 4 0 4 9 5 3 4 5 7 7 7 11 15 13 11 10 9 8 11 12 12 13 13 12 11 9 10 9 8 8 7 9 9 9 7 7 6 4 5 5 4 5 4 4 3
7 3 4 5 6 3 3 6 4 1 3 4 7 8 7 9 12 11 12 13 11 12 11 12 13 15 15 12 10 10 12 10 9 9 8 10 10 10 9 7 6 7 6 5 5 3 5 4 3
6 4 3 3 4 2 3 10 9 8 5 10 10 10 9 10 18 10 11 11 11 10 11 13 12 15 15 10 9 7 9 9 9 9 10 12 10 11 9 6 7 8 7 6 5 5 3 3 5
5 4 4 2 1 4 7 7 12 11 9 11 11 11 11 12 13 8 9 9 9 8 9 12 12 15 11 10 10 10 11 9 8 9 13 13 12 12 11 8 8 9 10 10 9 4 5 2 3
2 3 3 4 1 4 4 11 11 9 13 9 10 13 11 7 9 9 9 6 9 10 13 12 15 15 14 11 11 9 11 9 9 9 10 13 14 14 12 12 10 12 8 9 10 8 5 3 8
3 5 3 5 3 2 5 9 6 6 5 7 9 10 6 9 10 10 7 7 5 9 11 12 15 16 15 15 6 3 4 3 3 7 8 11 14 14 15 14 11 12 12 11 13 12 13 6 8
4 6 4 3 3 4 2 8 6 6 10 7 13 8 9 10 6 7 7 7 6 7 6 8 9 11 12 13 12 15 12 11 9 9 9 8 13 13 15 14 14 14 11 12 14 12 12 10 9
6 4 3 3 4 2 4 1 9 3 6 13 9 8 8 6 3 6 7 7 5 6 4 5 6 7 7 11 12 10 7 4 3 3 8 5 6 12 14 15 15 14 12 13 14 14 14 11 9
9 7 7 5 2 3 8 8 7 5 7 3 5 8 9 8 6 5 4 6 6 7 7 5 1 2 4 6 6 8 9 6 5 4 7 6 5 4 6 10 11 13 12 13 13 16 17 15 14
4 7 2 4 2 8 2 2 9 10 2 4 6 9 10 8 6 7 8 8 8 8 7 5 3 4 6 7 7 7 7 7 8 6 5 5 4 3 6 5 6 8 10 11 11 12 12 13 12
8 9 8 9 5 4 3 7 9 3 5 2 4 5 6 10 7 7 6 7 7 7 5 4 4 2 2 3 4 4 5 4 5 5 4 4 5 7 7 8 8 8 9 10 10 9 11 13 13
7 7 6 7 3 5 5 7 12 5 5 3 7 8 9 7 6 8 8 5 4 5 5 5 4 2 2 2 3 4 4 5 6 6 5 4 5 4 5 6 7 8 8 5 7 8 10 11 12
7 8 4 3 3 4 5 5 7 2 5 3 8 9 8 7 9 8 7 6 4 2 4 6 5 4 4 2 0 1 3 4 4 3 5 5 4 5 6 6 6 7 9 8 8 8 9 11 9
3 4 3 6 6 7 2 8 7 7 7 9 5 6 7 8 7 7 7 6 6 7 8 6 6 7 7 6 5 4 4 4 4 4 5 4 4 6 6 7 7 9 9 8 9 10 9 11 11
2 6 7 6 5 4 4 10 2 9 8 8 4 4 5 5 7 7 7 7 8 6 6 5 4 6 4 4 4 5 5 4 5 5 6 5 6 5 7 6 7 8 9 8 10 11 10 10 12
Wind_Direction
339 344 64 38 61 68 161 243 222 139 140 253 106 144 150 98 163 210 333 152 130 145 151 153 150 140 139 130 122 119 112 110 105 104 102 101 102 110 104 98 92 90 93 92 86 82 99 94 85
359 342 34 84 91 82 267 251 161 197 160 126 96 87 68 127 181 101 113 168 143 146 151 151 149 144 144 135 127 124 117 113 110 109 109 106 102 118 112 106 98 95 95 95 88 87 97 93 90
259 48 88 95 109 161 186 206 174 126 158 237 85 52 146 167 102 167 171 144 142 145 151 154 150 149 147 140 134 130 125 122 117 117 118 111 109 113 118 107 101 95 96 97 85 89 98 94 92
63 14 33 85 149 227 208 183 165 139 199 43 116 79 327 217 156 190 141 141 144 147 150 156 154 155 151 145 139 137 133 130 127 126 124 115 105 125 117 108 102 98 98 97 85 87 104 99 95
35 57 61 86 307 286 236 171 141 153 162 111 115 199 280 357 37 131 142 147 149 148 147 159 157 157 154 150 145 144 142 139 134 132 126 120 118 121 116 112 108 103 104 99 91 99 102 96 94
43 94 68 140 223 306 331 153 146 154 149 144 79 131 212 343 131 161 146 150 156 149 152 161 160 156 153 151 149 149 146 141 139 136 130 125 124 122 118 116 112 110 111 111 97 108 105 102 96
119 83 172 147 175 166 205 144 189 162 147 226 160 131 277 274 163 149 142 135 141 149 153 161 166 160 154 151 150 151 149 146 143 141 135 119 124 124 120 119 122 117 120 116 110 113 115 111 101
106 93 110 190 190 199 157 158 153 150 215 74 156 191 236 216 138 117 120 133 139 156 160 172 174 163 158 159 154 154 152 149 148 142 130 120 112 112 115 121 125 131 130 120 117 115 114 109 101
124 66 157 198 157 189 135 152 198 62 117 175 191 156 252 149 122 118 115 137 159 169 171 178 180 175 159 155 163 156 158 156 151 141 135 126 125 122 118 125 123 133 132 128 120 118 110 97 90
86 110 207 211 179 172 148 181 168 136 123 230 241 91 78 137 151 163 175 183 187 186 188 184 183 181 169 168 157 156 156 155 147 143 139 122 124 130 130 126 126 128 127 128 124 122 107 88 72
161 166 186 201 180 145 131 118 325 130 227 214 203 176 156 156 166 177 190 191 192 189 190 191 188 184 180 175 166 158 149 141 144 149 144 135 129 130 126 119 117 121 107 82 95 99 83 96 96
110 149 169 175 190 117 155 38 276 192 221 264 205 179 160 173 188 193 197 199 181 187 194 194 192 186 183 179 181 171 169 159 160 168 158 150 148 150 148 139 139 134 130 123 115 107 111 96 91
120 165 157 128 138 312 97 225 250 255 258 256 62 157 185 192 203 214 212 198 182 193 194 197 192 189 186 185 185 181 178 175 175 169 173 158 157 158 145 156 148 147 142 143 137 131 123 111 103
159 127 137 228 176 184 216 175 3 275 351 227 224 199 208 209 209 208 196 212 197 201 200 189 193 192 187 189 189 189 187 182 171 178 184 171 156 148 161 161 163 155 159 155 143 143 134 120 114
106 104 338 223 212 240 144 289 235 251 329 276 230 232 229 231 229 220 217 217 206 208 198 193 190 188 191 189 188 189 194 186 180 182 183 175 166 167 159 163 183 174 155 137 117 105 103 103 86
70 54 119 276 136 218 96 266 277 295 185 230 260 262 250 243 234 231 226 222 213 199 195 192 193 190 190 191 188 187 192 191 186 184 186 183 180 173 170 180 181 160 150 144 137 139 120 118 127
6 177 207 316 203 122 136 265 274 230 19 292 283 261 251 271 265 237 224 216 213 209 199 199 193 192 192 191 187 188 193 196 194 185 185 188 186 180 179 184 175 154 150 161 160 141 145 150 119
196 189 229 222 211 159 179 259 279 270 272 265 277 272 260 254 254 249 228 216 216 210 203 205 197 200 192 189 187 189 197 195 195 191 188 187 190 184 183 177 168 164 162 158 159 157 100 125 135
150 149 180 236 142 162 234 262 269 282 298 271 255 262 260 252 270 256 248 221 211 208 196 200 193 203 185 192 192 199 207 201 199 198 190 189 190 186 186 184 175 176 178 180 164 125 139 111 126
125 110 267 292 41 167 321 272 261 263 259 246 265 268 253 270 289 279 266 234 205 219 212 207 203 198 196 197 202 205 205 208 203 198 192 191 192 188 189 189 186 185 175 171 171 164 153 131 184
202 172 199 225 10 36 355 292 291 285 259 277 265 251 264 257 268 279 285 267 241 221 212 206 202 198 197 198 158 92 82 69 171 204 198 202 193 188 193 194 191 187 182 187 183 178 174 171 200
172 206 153 147 72 235 45 284 297 279 299 293 272 315 284 272 284 276 289 291 270 266 228 217 202 196 195 178 177 188 199 203 211 207 207 192 190 192 193 203 198 194 193 190 191 187 197 165 185
206 115 124 83 105 44 331 54 271 298 285 269 319 328 327 307 290 4 15 14 3 353 304 249 202 189 175 181 185 190 199 182 143 157 183 187 193 195 196 198 194 196 199 204 195 188 190 195 183
143 79 47 55 90 297 208 173 276 223 214 338 338 331 343 334 350 357 357 20 14 19 22 18 75 78 118 143 151 172 186 172 155 163 187 196 199 199 201 201 201 203 203 204 200 198 200 202 211
91 90 345 343 359 227 99 115 248 264 11 261 303 325 333 333 344 352 17 19 10 17 19 29 106 129 155 165 180 186 185 175 188 181 185 175 194 201 206 194 188 206 206 207 197 207 204 210 209
192 156 162 200 200 258 87 235 254 187 71 16 16 343 5 1 9 5 9 13 358 353 11 29 39 108 148 163 195 189 184 194 205 195 191 199 203 216 212 208 214 214 210 205 200 200 204 203 213
193 209 165 104 25 56 225 288 307 80 95 68 56 35 21 19 8 16 360 359 334 360 357 22 9 19 111 184 199 215 216 211 217 216 197 199 202 201 207 205 213 228 239 219 204 212 213 210 210
160 160 86 1 153 250 266 259 227 159 113 62 39 36 6 10 9 0 360 354 348 25 22 19 2 348 357 3 37 247 249 251 261 247 229 214 220 206 207 217 216 227 229 223 222 230 223 218 215
148 183 101 128 150 176 239 255 224 159 155 101 56 23 358 351 353 354 360 354 358 15 25 13 10 7 6 4 357 356 329 312 293 280 282 250 226 223 221 217 219 226 220 219 221 231 228 221 224
214 203 152 158 217 245 169 257 5 139 135 103 75 343 343 0 3 13 13 20 23 13 5 11 356 20 3 342 340 329 333 321 293 279 270 260 253 233 230 220 220 223 233 222 219 225 223 218 225